Weather History for Havre, MT

Change the Weather History Date:

Friday, February 22, 2013

  Actual Average Record
Temperature  
Mean Temperature 32 °F 24 °F  
Max Temperature 42 °F 36 °F 64 °F (2002)
Min Temperature 21 °F 12 °F -33 °F (1910)
Degree Days  
Heating Degree Days 33 41  
Month to date heating degree days 850 956  
Since 1 July heating degree days 5620 5879  
Cooling Degree Days 0 0  
Month to date cooling degree days 0 0  
Year to date cooling degree days 0 0  
Moisture  
Dew Point 23 °F    
Average Humidity 65    
Maximum Humidity 75    
Minimum Humidity 54    
Precipitation  
Precipitation 0.00 in 0.01 in 0.26 in (1889)
Month to date precipitation 0.41 0.22  
Year to date precipitation 1.51 0.55  
Snow  
Snow 0.00 in 0.20 in 4.30 in (1982)
Month to date snowfall 1.3 4.6  
Since 1 July snowfall 44.2 26.7  
Snow Depth T in    
Sea Level Pressure  
Sea Level Pressure 29.74 in    
Wind  
Wind Speed 14 mph (SW)    
Max Wind Speed 24 mph    
Max Gust Speed 31 mph    
Visibility 10 miles    
Events      
T = Trace of Precipitation, MM = Missing Value Source: NWS Daily Summary

Daily Weather History Graph

Daily Weather History Graph

Search for Another Location

Airport:

Trip Planner

Search our weather history database for the weather conditions in past years. The results will help you decide how hot, cold, wet, or windy it might be!

Date:

Astronomy

Feb. 22, 2013 Rise Set
Actual Time 7:13 AM MST 5:52 PM MST
Civil Twilight 6:41 AM MST 6:24 PM MST
Nautical Twilight 6:05 AM MST 7:00 PM MST
Astronomical Twilight 5:28 AM MST 7:37 PM MST
Moon 2:58 PM MST (2/22) 5:10 AM MST (2/22)
Length of Visible Light 11h 42m
Length of Day
10h 39m
Waxing Gibbous, 90% of the Moon is Illuminated
Feb 22
Waxing Gibbous
Feb 25
Full
Mar 4
Last Quarter
Mar 11
New
Mar 19
First Quarter

Hourly Weather History & Observations

Time (MST) Temp. Windchill Dew Point Humidity Pressure Visibility Wind Dir Wind Speed Gust Speed Precip Events Conditions
12:53 AM 28.9 °F 19.2 °F 19.9 °F 69% 29.88 in 10.0 mi SW 11.5 mph - N/A   Overcast
1:53 AM 28.0 °F 18.1 °F 19.9 °F 72% 29.88 in 10.0 mi SW 11.5 mph - N/A   Overcast
2:53 AM 28.0 °F 18.1 °F 19.0 °F 69% 29.88 in 10.0 mi SW 11.5 mph - N/A   Overcast
3:53 AM 27.0 °F 17.3 °F 19.9 °F 75% 29.88 in 10.0 mi SW 10.4 mph - N/A   Overcast
4:53 AM 26.1 °F 18.4 °F 18.0 °F 71% 29.88 in 10.0 mi West 6.9 mph - N/A   Clear
5:53 AM 26.1 °F 15.6 °F 18.0 °F 71% 29.88 in 10.0 mi SW 11.5 mph - N/A   Clear
6:53 AM 24.1 °F 12.0 °F 17.1 °F 75% 29.89 in 10.0 mi SW 13.8 mph - N/A   Clear
7:53 AM 24.1 °F 13.7 °F 16.0 °F 71% 29.88 in 10.0 mi SW 10.4 mph - N/A   Clear
8:53 AM 28.9 °F 17.7 °F 18.0 °F 64% 29.86 in 10.0 mi SW 15.0 mph - N/A   Clear
9:53 AM 32.0 °F 19.8 °F 19.9 °F 61% 29.85 in 10.0 mi SW 20.7 mph 26.5 mph N/A   Clear
10:53 AM 35.1 °F 23.8 °F 21.9 °F 59% 29.83 in 10.0 mi SSW 20.7 mph 27.6 mph N/A   Clear
11:53 AM 37.0 °F 25.9 °F 24.1 °F 59% 29.78 in 10.0 mi SSW 23.0 mph 27.6 mph N/A   Clear
12:53 PM 39.9 °F 30.5 °F 25.0 °F 55% 29.73 in 10.0 mi SSW 19.6 mph - N/A   Clear
1:53 PM 41.0 °F 33.1 °F 26.1 °F 55% 29.70 in 10.0 mi SW 15.0 mph - N/A   Clear
2:53 PM 41.0 °F 33.1 °F 26.1 °F 55% 29.66 in 10.0 mi SW 15.0 mph - N/A   Clear
3:53 PM 41.0 °F 33.1 °F 26.1 °F 55% 29.64 in 10.0 mi SSW 15.0 mph - N/A   Clear
4:53 PM 39.9 °F 31.1 °F 26.1 °F 58% 29.63 in 10.0 mi SSW 17.3 mph - N/A   Clear
5:53 PM 37.0 °F 27.4 °F 26.1 °F 65% 29.61 in 10.0 mi SSW 17.3 mph - N/A   Clear
6:53 PM 37.0 °F 27.7 °F 25.0 °F 62% 29.60 in 10.0 mi SSW 16.1 mph - N/A   Clear
7:53 PM 37.9 °F 30.5 °F 25.0 °F 60% 29.57 in 10.0 mi SSW 11.5 mph - N/A   Mostly Cloudy
8:53 PM 37.9 °F 28.5 °F 25.0 °F 60% 29.55 in 10.0 mi SSW 17.3 mph - N/A   Overcast
9:53 PM 36.0 °F 30.3 °F 26.1 °F 67% 29.55 in 10.0 mi SSW 6.9 mph - N/A   Overcast
10:53 PM 36.0 °F 29.6 °F 27.0 °F 70% 29.53 in 10.0 mi SW 8.1 mph - N/A   Overcast
11:53 PM 35.1 °F 27.9 °F 27.0 °F 72% 29.52 in 10.0 mi SW 9.2 mph - N/A   Partly Cloudy